Location: Geyikbay?r?
(36.8756°N, 30.4583°E)
Time: 05:57:21
(UTC+00:00)

CZ-4B R/B - Pass Details

Date: 05 August 2024
Orbit: 807 x 881 km, 99.0° (Epoch: 10 September)

Event Time Altitude Azimuth Distance (km) Brightness Sun altitude
Exits shadow 17:49:22 - 165° (SSE) 3,420 5.9 -9.6°
Reaches altitude 10° 17:51:39 10° 165° (SSE) 2,518 5.3 -10.0°
Maximum altitude 17:57:17 90° 138° (SE) 886 3.3 -11.0°
Drops below altitude 10° 18:02:59 10° 347° (NNW) 2,545 6.4 -12.0°
Sets 18:05:23 0° 347° (NNW) 3,485 7.1 -12.4°
